Location: ??? ????
(38.0580°N, 23.1536°E)
Time: 13:45:19
(UTC+00:00)

Cosmos 2297 Rocket - Pass Details

Date: 13 December 2025
Orbit: 837 x 844 km, 71.0° (Epoch: 17 January)

Event Time Altitude Azimuth Distance (km) Brightness Sun altitude
Rises 15:34:19 0° 335° (NNW) 3,408 5.4 -5.4°
Reaches altitude 10° 15:36:46 10° 333° (NNW) 2,469 4.7 -5.8°
Maximum altitude 15:42:24 69° 251° (WSW) 899 2.6 -6.8°
Drops below altitude 10° 15:48:00 10° 169° (SSE) 2,453 4.8 -7.8°
Sets 15:50:26 0° 166° (SSE) 3,383 5.5 -8.3°
